Regional Weather Roundup
Issued by NWS Little Rock, AR

Home | Current Version | Previous Version | Graphics & Text | Print | Product List | Glossary On
Versions: 1 2 3 4 5 6 7 8 9 10 11 12 13 14 15 16 17 18 19 20 21 22 23 24 25 26 27 28 29 30 31 32 33 34 35 36 37 38 39 40 41 42 43 44 45 46 47 48 49 50
000
ASUS44 KLZK 060705
RWRLZK

WEATHER ROUNDUP FOR ARKANSAS
NATIONAL WEATHER SERVICE LITTLE ROCK AR
100 AM CST TUE DEC 06 2016

NOTE: "FAIR" INDICATES FEW OR NO CLOUDS BELOW 12,000 FEET WITH NO
SIGNIFICANT WEATHER AND/OR OBSTRUCTIONS TO VISIBILITY.

ARZ001-003-010-029-060800-
NORTHWEST ARKANSAS

CITY           SKY/WX    TMP DP  RH WIND       PRES   REMARKS
FAYETTEVILLE   LGT RAIN  44  44 100 CALM      29.73R
FORT SMITH     LGT RAIN  45  43  93 NE3       29.74S
HARRISON       RAIN      39  38  96 SE5       29.73S FOG
BENTONVILLE    CLOUDY    43  36  75 N3        29.74R
ROGERS         CLOUDY    42  39  89 CALM      29.75R
SILOAM SPGS    CLOUDY    43  37  81 N5        29.75R
HIGHFILL       CLOUDY    44  40  85 N5        29.74R
$$

ARZ004-005-016-060800-
NORTH CENTRAL ARKANSAS

CITY           SKY/WX    TMP DP  RH WIND       PRES   REMARKS
BATESVILLE     CLOUDY    41  39  93 CALM      29.72F
FLIPPIN        CLOUDY    41  36  81 CALM      29.71F
MTN HOME       LGT RAIN  40  39  97 CALM      29.72F FOG
$$

ARZ040-041-060800-
WEST CENTRAL ARKANSAS

CITY           SKY/WX    TMP DP  RH WIND       PRES   REMARKS
MENA           CLOUDY    46  46 100 W5        29.74R
MOUNT IDA      LGT RAIN  45  44  97 NW3       29.68S FOG
$$

ARZ009-017-025-026-028-060800-
NORTHEAST ARKANSAS

CITY           SKY/WX    TMP DP  RH WIND       PRES   REMARKS
CORNING        LGT RAIN  41  41 100 NE9       29.72S
JONESBORO      LGT RAIN  42  41  96 VRB6      29.69F FOG
NEWPORT        CLOUDY    42  41  96 N8        29.71S
WALNUT RIDGE   CLOUDY    41  37  87 NE10      29.69F
BLYTHEVILLE    CLOUDY    45  43  93 NE8       29.69F
$$

ARZ022-023-033-042-044-060800-
CENTRAL ARKANSAS

CITY           SKY/WX    TMP DP  RH WIND       PRES   REMARKS
LITTLE ROCK    LGT RAIN  43  43 100 NW8       29.70F
N LITTLE ROCK    N/A     42  42  97 CALM      29.72F
JACKSONVILLE   LGT RAIN  44  44  99 W6        29.69F
SEARCY         CLOUDY    43  43 100 MISG        N/A  FOG
HOT SPRINGS    CLOUDY    45  44  97 W3        29.71R
RUSSELLVILLE   LGT RAIN  43  42  97 CALM      29.72S FOG
CLINTON        LGT RAIN  43  41  93 CALM      29.72S
$$

ARZ036-060800-
EAST ARKANSAS

CITY           SKY/WX    TMP DP  RH WIND       PRES   REMARKS
WEST MEMPHIS   LGT RAIN  45  45 100 N5        29.66F FOG
$$

ARZ050-053-066-070-073-060800-
SOUTHWEST ARKANSAS

CITY           SKY/WX    TMP DP  RH WIND       PRES   REMARKS
ARKADELPHIA    RAIN      45  44  97 N3        29.71R FOG
CAMDEN         LGT RAIN  45  43  93 SW3       29.71R
TEXARKANA      LGT RAIN  46  45  96 NW3       29.74S
EL DORADO      RAIN      46  45  96 W7        29.71R FOG
DE QUEEN       LGT RAIN  47  47 100 W5        29.74R FOG
$$

ARZ056-057-069-060800-
SOUTHEAST ARKANSAS

CITY           SKY/WX    TMP DP  RH WIND       PRES   REMARKS
PINE BLUFF     LGT RAIN  45  44  97 N9        29.66F
STUTTGART      CLOUDY    45  39  81 N7        29.68S
MONTICELLO     CLOUDY    47  45  93 N3        29.64F

$$





USA.gov is the U.S. government's official web portal to all federal, state and local government web resources and services.